Regional Weather Roundup
Issued by NWS Upton, NY

Current Version | Previous Version | Text Only | Print | Product List | Glossary Off
Versions: 1 2 3 4 5 6 7 8 9 10 11 12 13 14 15 16 17 18 19 20 21 22 23 24 25 26 27 28 29 30 31 32 33 34 35 36 37 38 39 40 41 42 43 44 45 46 47 48 49 50
000 ASUS41 KOKX 290304 RWROKX REGIONAL WEATHER ROUNDUP NATIONAL WEATHER SERVICE NEW YORK NY 1100 PM EDT WED SEP 28 2016 NOTE: "FAIR" INDICATES FEW OR NO CLOUDS BELOW 12,000 FEET WITH NO SIGNIFICANT WEATHER AND/OR OBSTRUCTIONS TO VISIBILITY. NYZ071-072-176-178-NJZ106-104-290400- NEW YORK CITY METRO AREA CITY SKY/WX TMP DP RH WIND PRES REMARKS Central Park CLOUDY 57 54 89 VRB6 30.28R FOG LaGuardia APRT DRIZZLE 61 56 83 NE23G30 30.25S Kennedy INTL LGT RAIN 60 54 80 NE18G24 30.24S Newark/Liberty LGT RAIN 58 55 90 NE17G24 30.25R FOG Bronx Bot Gard N/A 57 50 77 NE7 30.26F Wall St Helipt CLOUDY 63 59 88 NE14 30.25R Teterboro DRIZZLE 58 51 78 NE9 30.25R $$ NYZ177-179-078>081-290400- LONG ISLAND NEW YORK CITY SKY/WX TMP DP RH WIND PRES REMARKS Farmingdale CLOUDY 59 55 87 NE9 30.25R MacArthur/ISP DRIZZLE 58 56 93 NE15G25 30.24S Shirley CLOUDY 58 55 90 NE8 30.26R Riverhead NOT AVBL Westhampton CLOUDY 59 56 89 NE13G21 30.27R Southampton N/A 59 57 94 NE8 30.23R Bridgehampton N/A 57 55 94 E6 30.11S East Hampton CLOUDY 59 56 90 NE9G16 30.26R Montauk N/A 61 58 90 NE10G22 30.27R $$ NYZ052-065-067-290400- HUDSON VALLEY CITY SKY/WX TMP DP RH WIND PRES REMARKS White Plains DRIZZLE 55 52 89 NE7 30.27R Newburgh CLOUDY 55 52 88 E10G23 30.30R Montgomery CLOUDY 57 50 77 NE8 30.29R Poughkeepsie CLOUDY 56 48 74 N6 30.29S Albany CLOUDY 55 46 71 CALM 30.35R $$ NJZ001-105-106-008-010-013-015-019>022-104-290400- NEW JERSEY CITY SKY/WX TMP DP RH WIND PRES REMARKS Newark/Liberty LGT RAIN 58 55 90 NE17G24 30.25R FOG Teterboro DRIZZLE 58 51 78 NE9 30.25R Caldwell CLOUDY 57 54 89 E12 30.27R FOG Morristown CLOUDY 57 54 88 NE7 30.26R Somerville CLOUDY 60 53 77 NE10G20 30.21S Linden NOT AVBL Sussex CLOUDY 56 52 86 NE12 30.27S Abdover N/A 57 53 86 VRB6 30.25S Trenton CLOUDY 60 56 86 E12G21 30.20S Millville LGT RAIN 64 64 100 E17 30.13S Atlantic City CLOUDY 65 63 93 E17 30.17R FOG Wrightstown CLOUDY 60 59 96 NE13 30.17R Toms River LGT RAIN 62 61 96 E13G20 30.21R FOG Belmar CLOUDY 61 58 90 NE16G25 30.22F $$ PAZ047>061-062-071-290400- EASTERN PENNSYLVANIA CITY SKY/WX TMP DP RH WIND PRES REMARKS Philadelphia LGT RAIN 62 60 93 E20G28 30.16S Allentown CLOUDY 61 53 75 E16G24 30.20R Scranton CLOUDY 58 52 80 E8 30.20S $$ CTZ002-004>006-009-010-012-RIZ004-006-007-MAZ004-011-015-290400- SOUTHERN NEW ENGLAND IN CT CITY SKY/WX TMP DP RH WIND PRES REMARKS Bradley INTL CLOUDY 57 49 74 N8 30.34R Hartford CLOUDY 57 51 80 N7 30.32R Danbury CLOUDY 54 50 86 NE13 30.30R Wtrbury/Oxford N/A 54 46 76 NE13G22 30.30S Bridgeport CLOUDY 59 51 75 NE13 30.28R Meriden CLOUDY 58 50 75 N9 30.30R New Haven CLOUDY 57 51 80 N12 30.29R Chester CLOUDY 57 54 88 NE12G17 30.29R Groton CLOUDY 61 55 81 NE15 30.27R Wilimantic CLOUDY 58 53 84 NE10 30.32R IN RI CITY SKY/WX TMP DP RH WIND PRES REMARKS Providence CLOUDY 58 55 90 NE13 30.31R Block Island CLOUDY 60 59 96 NE17G30 30.26R FOG Westerly CLOUDY 59 54 83 N12G18 30.29R IN MA CITY SKY/WX TMP DP RH WIND PRES REMARKS Boston CLOUDY 58 52 80 NE24 30.35R Worcester CLOUDY 52 48 86 NE9G17 30.35R Westfield CLOUDY 56 49 77 N8 30.34R Provincetown CLOUDY 61 56 83 NE17G26 30.30R Nantucket CLOUDY 60 57 89 NE20G31 30.24R $$ ANZ330-335-338-340-345-350-353-355-290400- COASTAL MARINE OBSERVATIONS STATION/POSITION TIME SKY/WX TEMP WIND PRES VSBY WAVE AIR SEA DIR/SP/G HT/PER (UTC) (F) (DEG/KT/KT) (MB) (MI) (FT/S) NY HARB ENTRANCE 0150 63 70 50/ 25/ 29 1021.9 8/ 8 20S FIRE ISLAND 0150 63 69 60/ 23/ 29 1021.8 10/ 8 GREAT SOUTH BAY 0230 60 68 40/ 16/ 21 N/A 23 SSW MONTAUK P 0150 63 67 50/ 23/ 29 1023.1 9/ 7 15 E BARNEGAT LI 0200 70 N/A 10/ 8 HUDSON CANYON 0150 66 68 1020.8 10/ 8 KINGS POINT 0230 60 72 1024.4 EXECUTION ROCKS 0245 61 40/ 17/ 23 N/A CENTRAL LI SOUND NOT AVBL EASTERN LI SOUND NOT AVBL ROBBINS REEF 0230 60 60/ 19/ 25 1023.9 $$ >>>>>>>>>>>>>>>>>>>>>>>>>>>> KEY <<<<<<<<<<<<<<<<<<<<<<<<<<< > < > SKY/WX - Sky Condition/Present Weather < > TMP - Temperature in Fahrenheit < > DP - Dew Point in Fahrenheit < > RH - Relative Humidity in Percent < > WIND - Direction (from) and Speed in MPH < > PRES - Mean Sea Level Pressure (inches of Hg) < > WCI - Wind Chill Index < > VSB - VISIBILITY IN MILES < > HX - HEAT INDEX < > TC - TEMPERATURE IN CELSIUS < > VRB - VARIABLE WIND DIRECTION < > < >>>>>>>>>>>>>>>>>>>>>>>>>>>> KEY <<<<<<<<<<<<<<<<<<<<<<<<<<<

USA.gov is the U.S. government's official web portal to all federal, state and local government web resources and services.